TimeCST,TemperatureF,Dew PointF,Humidity,Sea Level PressureIn,VisibilityMPH,Wind Direction,Wind SpeedMPH,Gust SpeedMPH,PrecipitationIn,Events,Conditions,WindDirDegrees,DateUTC
12:53 AM,28.9,25.0,85,30.17,10.0,Calm,Calm,-,N/A,,Clear,0,2013-01-08 06:53:00
1:53 AM,28.9,25.0,85,30.17,10.0,Calm,Calm,-,N/A,,Clear,0,2013-01-08 07:53:00
2:53 AM,28.9,25.0,85,30.18,10.0,Calm,Calm,-,N/A,,Mostly Cloudy,0,2013-01-08 08:53:00
3:53 AM,30.0,26.1,85,30.17,10.0,Calm,Calm,-,N/A,,Overcast,0,2013-01-08 09:53:00
4:53 AM,30.9,27.0,85,30.16,10.0,Calm,Calm,-,N/A,,Overcast,0,2013-01-08 10:53:00
5:53 AM,30.0,27.0,88,30.17,10.0,Calm,Calm,-,N/A,,Mostly Cloudy,0,2013-01-08 11:53:00
6:53 AM,32.0,28.0,85,30.19,10.0,Calm,Calm,-,N/A,,Overcast,0,2013-01-08 12:53:00
7:53 AM,32.0,28.9,88,30.19,10.0,Calm,Calm,-,N/A,,Scattered Clouds,0,2013-01-08 13:53:00
8:53 AM,36.0,30.9,82,30.21,10.0,Calm,Calm,-,N/A,,Mostly Cloudy,0,2013-01-08 14:53:00
9:53 AM,41.0,35.1,79,30.21,10.0,Calm,Calm,-,N/A,,Mostly Cloudy,0,2013-01-08 15:53:00
10:53 AM,46.0,35.1,66,30.20,10.0,Variable,3.5,-,N/A,,Scattered Clouds,0,2013-01-08 16:53:00
11:53 AM,50.0,35.1,57,30.16,10.0,Calm,Calm,-,N/A,,Mostly Cloudy,0,2013-01-08 17:53:00
12:53 PM,52.0,37.0,57,30.11,10.0,ESE,4.6,-,N/A,,Mostly Cloudy,120,2013-01-08 18:53:00
1:34 PM,53.6,37.4,54,30.08,10.0,Calm,Calm,-,N/A,,Mostly Cloudy,0,2013-01-08 19:34:00
1:43 PM,53.6,37.4,54,30.08,10.0,Variable,4.6,-,N/A,,Mostly Cloudy,0,2013-01-08 19:43:00
1:53 PM,53.1,37.0,55,30.11,10.0,Calm,Calm,-,N/A,,Overcast,0,2013-01-08 19:53:00
2:40 PM,51.8,37.4,58,30.07,10.0,Variable,3.5,-,0.00,,Overcast,0,2013-01-08 20:40:00
2:53 PM,52.0,37.9,59,30.10,10.0,Calm,Calm,-,0.00,,Overcast,0,2013-01-08 20:53:00
3:53 PM,51.1,39.0,63,30.09,10.0,Variable,3.5,-,0.00,,Overcast,0,2013-01-08 21:53:00
4:42 PM,50.0,39.2,66,30.07,10.0,Calm,Calm,-,N/A,,Overcast,0,2013-01-08 22:42:00
4:53 PM,50.0,39.0,66,30.08,10.0,Calm,Calm,-,N/A,,Overcast,0,2013-01-08 22:53:00
5:08 PM,48.2,39.2,71,30.05,10.0,Calm,Calm,-,N/A,,Overcast,0,2013-01-08 23:08:00
5:53 PM,48.9,39.9,71,30.09,10.0,Calm,Calm,-,0.00,Rain,Light Rain,0,2013-01-08 23:53:00
6:53 PM,46.9,43.0,86,30.12,10.0,Calm,Calm,-,0.00,,Overcast,0,2013-01-09 00:53:00
7:53 PM,46.0,44.1,93,30.13,10.0,Calm,Calm,-,0.00,Rain,Light Rain,0,2013-01-09 01:53:00
8:53 PM,46.0,44.1,93,30.14,8.0,Calm,Calm,-,0.01,Rain,Light Rain,0,2013-01-09 02:53:00
9:53 PM,46.0,45.0,96,30.16,5.0,Calm,Calm,-,0.00,Rain,Light Rain,0,2013-01-09 03:53:00
10:53 PM,46.0,45.0,96,30.17,5.0,Calm,Calm,-,0.01,Rain,Light Rain,0,2013-01-09 04:53:00
11:07 PM,46.4,44.6,93,30.16,4.0,Calm,Calm,-,0.01,Rain,Light Rain,0,2013-01-09 05:07:00
11:53 PM,46.0,46.0,100,30.18,2.5,Calm,Calm,-,0.05,Rain,Light Rain,0,2013-01-09 05:53:00